Dewpoint
51 51 51 51 51 51 51 49 50 48 49 49 49 49 50 48 48 47 48 49 49 49 50 50 50 50 50 37 37 49 52 45 42 42 40 38 36 36 33 31 31 31 32 32 32 33 32
52 52 52 52 52 52 52 51 50 50 50 49 49 49 50 50 49 48 47 47 48 49 50 50 51 50 45 35 44 47 47 43 42 41 39 40 38 38 37 34 32 33 33 33 33 32 32
52 52 52 53 54 52 52 51 50 50 50 50 49 50 50 49 49 48 48 48 48 49 50 50 50 48 44 40 43 44 44 43 43 42 40 41 41 39 37 34 36 34 32 32 31 31 29
55 55 55 53 53 53 52 51 52 51 49 48 49 49 49 48 48 48 48 48 48 49 51 50 50 46 40 42 45 42 42 41 43 42 43 43 42 41 38 37 35 32 31 28 26 26 28
56 57 57 56 54 54 52 52 51 49 49 48 49 50 49 48 47 47 48 48 50 50 52 49 48 44 37 43 40 43 43 40 41 42 43 42 42 39 37 34 34 32 25 24 25 27 27
53 54 55 57 57 55 54 52 51 47 47 49 51 50 49 48 47 47 48 49 50 52 51 47 43 41 38 36 40 41 43 42 40 39 40 42 38 35 35 34 25 23 24 26 26 27 29
50 51 53 53 54 57 55 54 52 50 48 50 51 50 48 47 47 47 48 48 44 45 44 37 35 36 32 38 40 40 42 41 40 38 34 37 33 34 29 28 27 28 28 28 29 29 27
46 48 50 52 52 54 57 55 54 53 53 53 52 49 47 47 46 47 49 40 42 42 36 36 36 35 36 39 32 37 42 38 35 32 31 33 33 30 31 30 29 29 28 28 28 27 26
43 44 46 48 50 52 53 56 56 54 53 53 51 49 47 46 46 47 44 44 45 44 37 36 34 34 36 36 32 37 40 36 34 32 31 29 29 30 29 29 29 30 29 28 26 27 29
42 41 42 44 46 50 52 54 54 56 55 53 51 48 47 45 45 44 43 45 44 44 35 30 31 37 38 38 35 39 39 37 34 32 32 31 31 30 30 30 30 28 27 27 28 28 25
42 43 43 41 43 44 49 52 52 54 56 54 52 48 46 44 42 42 45 44 43 43 -3 32 32 41 39 37 37 39 40 38 32 31 31 25 29 31 31 30 28 27 28 29 30 28 29
44 45 43 43 43 42 45 50 52 52 53 55 53 49 46 45 44 44 46 44 42 30 -5 24 36 36 35 35 34 40 39 40 38 35 33 32 32 32 32 32 32 31 29 27 27 30 23
45 44 44 43 42 42 42 49 51 51 50 55 53 49 45 43 41 46 46 42 32 17 18 22 28 32 31 31 31 34 35 35 31 27 28 29 29 32 33 31 28 26 25 21 20 20 17
43 45 44 45 42 41 45 47 49 50 52 52 52 50 47 44 44 46 43 35 23 23 18 25 26 30 27 26 27 30 30 29 30 30 27 27 20 28 32 31 27 26 26 23 17 16 18
43 47 45 42 44 41 42 47 49 49 50 52 52 49 46 46 45 46 40 30 24 23 16 20 27 23 25 26 26 28 27 25 24 29 23 20 22 27 27 27 27 25 23 28 27 25 21
42 44 44 43 41 42 44 46 48 49 49 52 47 45 43 46 46 43 36 29 27 22 19 22 19 20 7 22 24 22 17 21 24 27 28 25 21 25 26 28 28 27 27 24 25 19 15
45 43 43 43 44 44 43 47 48 47 48 50 45 41 44 46 45 38 30 31 30 30 22 19 18 14 10 11 19 17 13 20 24 28 28 27 24 23 25 24 23 24 26 27 30 27 19
44 44 45 45 45 45 46 46 47 47 48 48 43 35 44 45 37 37 33 32 32 31 28 24 26 24 20 16 11 12 16 15 24 28 27 28 26 23 21 23 23 20 20 20 20 19 22
43 44 43 45 45 45 43 46 47 47 48 45 37 37 44 45 32 32 33 33 33 32 32 26 23 21 20 18 16 14 15 25 26 28 26 28 26 19 17 21 24 21 22 22 20 20 19
39 43 43 43 44 45 46 46 46 47 47 43 38 32 38 39 39 34 34 34 31 34 32 31 30 27 24 23 23 18 16 24 28 27 31 30 24 21 16 16 22 23 23 23 21 19 20
37 40 42 43 44 44 44 45 46 46 46 44 38 35 36 30 32 34 34 34 33 33 34 32 28 28 26 24 24 22 21 20 27 30 31 30 25 24 25 24 24 23 23 23 21 20 19
36 36 38 39 40 41 41 42 42 44 46 42 35 35 36 35 35 33 32 30 29 30 31 32 31 30 29 26 26 24 23 21 21 29 30 30 27 26 24 23 23 20 19 20 20 19 19
37 36 35 36 36 38 38 39 39 40 44 40 39 39 37 33 33 31 31 31 30 34 34 35 32 31 29 31 30 33 31 30 27 24 27 27 28 24 21 23 22 18 18 17 17 17 15
34 36 37 36 36 36 36 37 37 38 39 39 39 37 33 29 29 27 27 28 28 28 30 30 31 31 35 34 33 31 30 30 28 27 25 24 25 25 22 22 16 16 18 17 17 18 17
33 33 33 33 34 35 35 36 36 36 36 36 37 37 33 27 28 26 25 25 25 26 26 25 27 31 31 29 27 26 24 26 26 28 28 27 26 23 19 19 19 18 14 18 17 15 17
33 32 32 33 33 33 33 34 34 35 34 35 34 35 34 28 23 23 20 22 23 25 26 26 27 27 28 28 27 24 20 21 17 23 27 26 27 24 20 19 15 15 17 21 15 12 20
36 36 35 33 33 33 33 33 33 34 34 35 35 36 34 28 26 27 24 22 24 27 27 27 27 27 28 26 26 24 22 25 21 21 23 23 24 24 22 21 21 22 22 18 11 14 21
34 33 33 33 34 33 33 33 33 33 34 35 35 36 34 28 28 28 27 26 27 29 26 25 30 31 32 29 26 26 25 22 22 20 23 23 22 22 23 21 17 23 19 14 19 20 20
33 32 33 33 33 34 33 35 34 33 34 36 34 36 35 32 28 33 33 33 33 30 26 31 31 33 34 31 30 28 24 22 21 17 23 21 22 22 22 21 22 23 20 22 21 21 20
Wind_Speed
3 3 4 5 6 7 8 7 8 8 9 9 11 13 13 14 14 15 16 16 16 17 16 15 16 18 9 4 4 4 1 5 6 11 11 13 12 8 6 7 10 10 11 12 18 22 21
6 6 7 6 4 6 8 8 8 9 9 10 11 13 13 13 14 16 16 16 16 16 16 16 15 17 4 2 4 2 2 5 9 9 8 10 7 6 5 8 6 9 16 20 18 15 14
9 8 7 8 8 4 5 7 7 7 9 9 11 11 11 14 16 16 17 17 17 16 17 12 9 6 4 1 2 1 1 3 5 6 6 7 6 7 10 8 11 11 13 17 14 8 10
11 11 11 9 8 7 5 6 8 6 7 9 9 9 9 15 15 17 18 18 17 16 13 8 4 5 3 2 3 3 2 2 1 3 4 4 5 6 3 10 7 7 9 10 13 13 7
10 10 12 10 9 9 7 6 6 4 7 8 8 9 11 13 15 18 18 19 19 11 7 4 5 3 2 3 2 4 2 4 5 2 2 5 4 3 4 6 6 6 13 21 17 20 15
13 11 12 10 11 10 10 9 7 5 7 8 7 7 10 12 16 19 21 21 7 4 6 6 4 3 4 2 3 1 1 2 3 7 8 4 4 4 9 5 9 18 19 15 20 12 27
12 14 11 13 12 12 12 11 10 10 11 8 7 7 8 12 16 18 15 3 3 2 5 6 3 4 2 4 3 4 0 2 4 5 3 3 3 7 10 7 9 15 18 22 24 25 27
15 15 14 14 13 12 10 14 12 12 13 14 7 7 8 11 15 17 10 4 5 2 10 2 4 6 5 1 2 6 1 2 2 7 9 3 11 3 6 9 11 16 21 26 21 15 21
14 16 16 16 15 14 12 12 13 13 12 11 8 7 7 10 15 10 5 4 4 6 6 4 2 3 1 6 2 6 5 1 5 6 7 9 11 16 6 12 15 16 21 23 25 26 19
14 17 16 17 15 14 13 10 9 15 13 11 9 6 6 14 7 5 1 4 4 4 5 5 3 3 4 3 2 4 3 2 3 5 6 10 1 5 11 15 16 18 7 17 23 23 16
18 17 17 17 18 14 14 14 11 9 15 12 11 6 1 5 10 4 4 5 4 3 8 5 4 2 2 4 3 3 2 3 6 7 1 8 6 7 12 8 7 12 14 21 27 26 19
19 19 19 16 17 16 15 15 13 10 8 15 14 8 2 5 5 4 5 7 4 1 7 1 4 3 3 6 4 4 4 3 5 5 9 20 9 9 6 11 14 21 18 24 21 2 4
21 20 17 17 15 15 15 16 13 9 9 14 15 11 5 3 5 7 6 4 3 5 1 2 2 4 6 6 6 7 5 5 4 5 3 8 8 6 4 8 10 9 20 10 3 3 12
18 19 17 15 13 14 12 15 13 11 8 7 15 12 5 8 5 7 4 3 7 5 7 3 2 5 5 5 5 6 4 6 18 11 9 5 9 7 11 5 7 15 5 5 9 12 35
21 16 11 12 10 12 11 13 11 11 7 6 14 5 2 4 4 2 1 7 6 6 4 3 1 6 6 4 2 4 9 6 2 12 6 6 5 5 12 8 1 2 6 7 10 19 17
14 9 5 6 9 10 10 9 10 8 5 14 7 7 4 8 9 2 3 9 8 2 4 6 5 9 6 8 3 7 4 7 3 7 8 4 11 8 2 3 12 14 3 4 3 8 15
13 10 8 8 10 10 7 5 5 5 5 15 5 3 3 13 5 3 9 8 12 19 4 4 7 12 13 9 6 8 6 2 7 7 5 6 5 5 8 7 9 5 7 7 2 6 7
17 12 11 8 6 4 1 2 4 4 7 9 5 6 3 10 8 5 11 6 4 17 5 7 5 9 10 15 16 13 11 6 7 8 4 9 5 10 14 25 14 5 7 11 8 10 13
15 13 13 12 11 6 5 2 5 6 13 6 4 2 0 2 9 17 11 14 15 19 19 7 8 10 8 12 9 11 16 5 3 7 4 3 6 10 12 1 2 4 7 12 16 16 27
12 14 12 11 10 11 8 5 5 3 4 5 3 5 4 5 3 5 4 13 24 6 6 10 14 15 16 17 17 10 11 1 6 10 2 2 6 12 19 21 19 29 28 19 16 14 21
10 10 11 12 12 14 16 13 11 6 7 4 4 3 2 6 13 13 10 8 6 8 10 9 10 21 19 17 15 22 20 22 10 10 6 5 10 17 21 23 25 28 32 28 22 25 20
7 8 9 8 10 11 13 13 15 15 6 3 3 2 2 5 1 15 19 13 23 19 12 12 17 12 12 17 21 23 24 22 13 9 9 11 8 14 24 24 24 26 24 21 27 26 26
7 8 7 9 8 8 9 11 13 15 7 3 5 2 4 6 5 6 7 11 12 10 11 21 22 19 21 18 17 16 23 25 21 18 14 8 5 7 11 15 23 15 7 5 9 15 17
7 8 8 8 8 8 8 9 9 10 8 2 2 3 2 6 10 13 14 15 18 18 21 18 17 14 8 13 16 16 21 25 25 23 14 13 10 5 14 15 6 3 8 7 10 18 19
6 6 7 7 8 9 8 8 7 7 7 7 2 1 3 6 8 12 18 15 18 18 23 25 21 23 19 20 19 16 15 16 23 23 24 19 14 7 6 7 19 17 2 1 2 15 3
9 8 7 7 8 9 10 11 9 7 6 5 7 4 5 8 10 11 19 18 22 21 23 24 21 19 19 17 14 14 14 10 6 2 7 4 14 13 8 6 6 2 5 3 4 7 7
12 12 12 11 9 9 9 10 11 10 8 6 5 6 6 12 16 20 18 16 9 15 20 21 16 18 19 22 21 20 23 8 25 10 6 6 9 25 20 8 12 13 7 6 2 3 14
15 15 14 13 13 13 13 12 12 13 13 9 9 7 7 11 22 22 30 27 14 16 22 14 8 8 6 12 13 14 12 15 21 15 15 18 17 11 11 10 13 13 4 5 2 4 10
17 16 15 15 16 16 17 16 14 14 15 14 12 10 12 12 22 23 28 28 26 32 31 18 14 6 9 9 12 9 18 14 25 29 12 13 11 11 19 13 3 10 2 0 3 4 5
Wind_Direction
323 323 327 328 331 342 339 326 325 324 327 330 330 332 337 336 335 335 331 329 328 327 326 325 326 325 326 264 82 117 335 344 344 341 14 2 26 355 8 338 335 249 293 316 305 303 293
278 285 281 275 281 321 331 330 327 328 326 321 328 331 335 339 337 333 327 323 321 322 320 316 315 320 261 259 114 87 5 323 12 358 2 20 359 326 280 296 288 319 308 299 292 279 272
283 282 281 293 266 263 306 312 302 310 319 323 327 333 339 337 334 332 326 321 317 315 316 313 304 304 275 55 116 29 313 29 1 6 346 19 340 327 340 298 348 285 295 296 264 250 275
277 285 290 289 293 259 269 293 313 300 313 322 325 336 334 336 331 329 325 317 311 307 306 305 282 278 314 111 7 267 289 299 144 336 336 335 325 292 247 317 279 272 268 304 313 338 274
4 339 292 279 281 248 256 268 298 293 303 311 313 319 328 334 330 329 322 312 305 291 285 266 251 258 142 155 212 82 337 319 322 258 288 300 295 293 285 291 315 213 312 314 318 327 345
336 349 353 350 285 257 250 266 270 258 279 297 302 306 327 334 334 328 321 304 293 283 239 234 260 273 180 93 104 114 58 309 306 308 247 248 236 274 242 260 315 306 313 306 301 304 307
321 328 329 343 342 270 246 252 255 259 268 267 266 287 323 333 333 328 332 335 308 229 226 254 316 295 213 100 184 192 55 277 250 241 325 129 337 291 308 350 313 300 292 289 289 292 289
313 309 312 328 333 337 308 247 251 260 270 287 257 280 320 330 328 318 301 8 48 274 311 243 270 269 270 53 266 176 198 288 211 292 309 265 272 354 320 292 283 289 293 290 293 300 310
313 309 302 297 309 320 326 323 242 253 270 275 250 279 322 328 322 301 3 52 346 323 271 255 211 263 157 184 246 140 174 45 275 293 294 266 264 317 302 292 296 292 289 297 295 314 306
303 298 301 297 289 309 312 307 328 255 250 254 242 267 323 323 312 344 49 11 330 322 322 275 194 141 153 246 231 77 201 314 260 287 313 270 179 282 289 285 285 293 281 307 305 313 310
299 297 291 287 290 290 306 302 300 298 245 250 230 235 299 356 309 302 10 325 310 248 311 184 135 107 123 235 112 156 98 202 245 278 324 270 284 323 311 269 323 264 302 299 288 286 299
308 297 279 285 281 285 294 306 287 277 289 226 225 200 211 264 231 321 328 308 275 354 254 146 127 187 201 197 199 126 213 222 283 284 239 252 267 283 236 299 279 272 290 298 284 142 287
296 292 283 270 274 280 283 301 288 278 288 237 205 175 194 323 322 341 314 272 311 217 77 202 246 188 241 185 211 189 196 214 238 308 293 312 260 169 220 286 292 356 333 318 315 273 267
315 296 272 268 263 273 283 294 304 278 288 268 177 168 226 250 352 334 274 252 229 270 270 104 133 192 234 167 211 199 264 262 219 228 290 316 331 180 161 221 279 310 308 292 306 310 300
326 304 248 276 263 274 281 286 305 282 287 234 153 147 232 241 146 284 230 223 224 226 9 335 243 220 201 191 228 214 222 242 105 187 222 306 262 189 232 263 96 31 245 221 271 274 279
356 14 314 286 268 279 272 288 301 288 287 158 130 147 215 129 119 103 187 232 222 26 344 311 268 197 286 170 192 191 254 168 165 195 253 307 297 271 159 221 237 217 308 322 274 305 311
345 342 331 309 303 287 275 292 310 257 244 149 124 172 166 131 145 151 214 219 247 255 237 268 286 291 300 290 208 285 270 219 184 172 233 277 248 270 291 220 259 237 246 216 206 247 280
8 7 356 349 324 316 276 325 329 296 181 151 140 207 167 153 187 202 227 226 250 282 262 259 291 274 280 299 297 272 260 290 122 150 210 212 282 281 269 274 277 219 268 275 268 263 263
0 9 16 6 13 349 306 339 346 352 170 151 182 188 181 151 227 229 235 251 238 252 257 235 242 242 275 284 284 245 253 102 156 184 253 150 242 302 312 72 113 216 242 283 289 282 277
351 6 12 10 22 24 16 335 322 314 278 219 209 202 150 211 249 230 289 251 242 222 261 272 268 279 277 270 262 271 288 220 198 230 250 6 245 233 252 272 305 294 289 286 282 273 276
348 353 13 26 34 33 33 29 32 13 326 213 206 244 165 195 223 240 243 285 282 246 205 258 249 244 256 263 263 263 256 264 217 204 185 219 261 261 266 275 284 282 281 283 266 261 260
352 347 341 8 26 30 32 29 31 22 7 200 250 199 231 298 353 211 231 247 264 282 275 243 242 253 269 265 263 278 294 298 301 156 174 222 267 306 294 276 273 282 277 268 267 271 264
352 360 352 343 2 15 18 21 16 19 15 334 344 352 248 206 204 222 230 231 231 215 249 244 264 263 270 273 303 306 300 295 289 282 196 214 225 313 280 337 311 291 278 246 265 276 280
341 349 358 353 354 355 358 9 9 12 26 77 28 325 317 256 240 248 258 255 255 252 244 264 273 279 272 315 305 296 279 276 268 262 243 243 224 249 286 314 268 242 261 243 265 281 289
297 318 329 336 346 347 341 340 347 357 352 321 312 206 243 265 260 286 279 280 290 289 276 263 254 256 267 283 289 294 292 272 244 235 232 227 229 248 257 280 284 294 234 279 335 309 25
277 277 286 301 316 325 329 326 317 317 323 312 293 293 263 281 245 252 276 276 275 275 278 273 268 259 251 246 253 246 243 281 212 185 11 297 207 205 214 247 260 281 196 134 131 305 345
272 275 282 282 281 288 294 303 309 312 295 291 285 295 276 269 263 251 253 259 252 266 275 281 266 268 231 239 240 234 242 248 259 221 162 165 203 221 226 260 275 266 145 150 353 301 320
266 267 273 274 281 281 276 276 284 293 296 279 274 267 246 272 274 273 268 268 263 260 257 261 303 229 201 215 229 231 238 234 239 225 172 176 177 189 207 221 266 180 134 212 238 317 337
274 275 277 282 286 286 287 283 273 275 287 286 277 258 255 251 265 298 281 267 253 252 257 267 260 255 193 208 219 220 242 245 226 244 183 196 200 188 192 212 258 184 214 126 84 308 325